TimeEST,TemperatureF,Dew PointF,Humidity,Sea Level PressureIn,VisibilityMPH,Wind Direction,Wind SpeedMPH,Gust SpeedMPH,PrecipitationIn,Events,Conditions,WindDirDegrees,DateUTC
12:53 AM,37.9,35.1,89,30.35,9.0,WSW,4.6,-,N/A,,Overcast,250,2011-12-24 05:53:00
1:53 AM,37.0,34.0,89,30.35,8.0,West,5.8,-,N/A,,Overcast,260,2011-12-24 06:53:00
2:00 AM,37.4,33.8,87,30.34,7.0,Variable,3.5,-,N/A,,Overcast,0,2011-12-24 07:00:00
2:53 AM,36.0,33.1,89,30.38,10.0,Variable,5.8,-,N/A,,Overcast,0,2011-12-24 07:53:00
3:53 AM,36.0,32.0,86,30.39,10.0,Variable,4.6,-,N/A,,Mostly Cloudy,0,2011-12-24 08:53:00
4:53 AM,35.1,30.9,85,30.40,10.0,West,5.8,-,N/A,,Scattered Clouds,280,2011-12-24 09:53:00
5:45 AM,33.8,30.2,87,30.39,10.0,NW,4.6,-,N/A,,Mostly Cloudy,320,2011-12-24 10:45:00
5:53 AM,34.0,28.9,82,30.42,10.0,NW,5.8,-,N/A,,Scattered Clouds,310,2011-12-24 10:53:00
6:53 AM,33.8,28.4,81,30.41,10.0,NW,4.6,-,N/A,,Clear,320,2011-12-24 11:53:00
7:53 AM,32.0,27.0,82,30.45,10.0,Calm,Calm,-,N/A,,Partly Cloudy,0,2011-12-24 12:53:00
8:53 AM,34.0,30.0,85,30.46,10.0,Calm,Calm,-,N/A,,Clear,0,2011-12-24 13:53:00
9:53 AM,36.0,28.9,76,30.48,10.0,Calm,Calm,-,N/A,,Clear,0,2011-12-24 14:53:00
10:53 AM,37.0,28.0,70,30.47,10.0,Variable,4.6,-,N/A,,Scattered Clouds,0,2011-12-24 15:53:00
11:53 AM,39.9,30.0,68,30.44,10.0,Variable,3.5,-,N/A,,Partly Cloudy,0,2011-12-24 16:53:00
12:37 PM,39.2,28.4,65,30.39,10.0,SE,6.9,-,N/A,,Mostly Cloudy,140,2011-12-24 17:37:00
12:53 PM,42.1,28.9,60,30.40,10.0,Variable,4.6,-,N/A,,Scattered Clouds,0,2011-12-24 17:53:00
1:53 PM,43.0,28.9,58,30.38,10.0,Variable,4.6,-,N/A,,Clear,0,2011-12-24 18:53:00
2:53 PM,45.0,28.9,53,30.38,10.0,Calm,Calm,-,N/A,,Clear,0,2011-12-24 19:53:00
3:53 PM,45.0,28.9,53,30.38,10.0,Variable,3.5,-,N/A,,Clear,0,2011-12-24 20:53:00
4:53 PM,42.1,28.9,60,30.38,10.0,Calm,Calm,-,N/A,,Clear,0,2011-12-24 21:53:00
5:53 PM,39.9,28.0,63,30.39,10.0,Calm,Calm,-,N/A,,Clear,0,2011-12-24 22:53:00
6:53 PM,39.0,28.0,65,30.40,10.0,Calm,Calm,-,N/A,,Clear,0,2011-12-24 23:53:00
7:53 PM,37.0,28.0,70,30.40,10.0,SW,3.5,-,N/A,,Clear,220,2011-12-25 00:53:00
8:53 PM,36.0,28.0,73,30.38,10.0,SW,3.5,-,N/A,,Clear,220,2011-12-25 01:53:00
9:53 PM,36.0,28.0,73,30.39,10.0,SW,3.5,-,N/A,,Clear,220,2011-12-25 02:53:00
10:53 PM,35.1,28.0,76,30.38,10.0,SSW,3.5,-,N/A,,Clear,210,2011-12-25 03:53:00
11:53 PM,34.0,28.0,79,30.36,10.0,SSW,5.8,-,N/A,,Clear,200,2011-12-25 04:53:00